COSMOS 1391

Satellite information

Favourite Embed

Satellite Type and Status

PAYLOADIN ORBIT

Key statistics

Satellite COSMOS 1391 at a glance.

Uptime

15813

Days in orbit

Revolutions

≈ 12.5

Per day

Orbit

LEO

Low Earth Orbit

Inclination

74.0

Latest

Satellite identification and parameters

Extended collection of information and parameters for COSMOS 1391.

Object identification

Identified? True

Debris? False

Object name: COSMOS 1391

International designator: 1982-073D

Object number (NORAD): 13378

Object ID (CCSDS): 13378

Country: COMMONWEALTH OF INDEPENDENT STATES (CIS)

Current information (Y/N): Y

RCS size: MEDIUM

Orbital parameters

Period: 115.068 minutes

Inclination: 74.015 deg

SMA: 7836.658 km

Apoapsis: 1474.215 km

Periapsis: 1442.831 km

RAAN: 201.2244 deg

Eccentricy: 0.0020024

Argument of periapsis: 66.1146 deg

Mean anomaly: 319.2216 deg

Mean motion: 12.51429592 rev/day

Mean motion (dot): 0.00000004 rev/day2

B* drag term: 0.00012936 1/REarth

Two-line elements (TLE)

Creation date: Nov. 4, 2025, 11:56 p.m.

Reference frame: TEME

Reference center: EARTH

Epoch: Nov. 4, 2025, 3:58 p.m. UTC

TLE line 0: 0 COSMOS 1391

TLE line 1: 1 13378U 82073D 25308.66589097 .00000004 00000-0 12936-3 0 9998

TLE line 2: 2 13378 74.0150 201.2244 0020024 66.1146 319.2216 12.51429592977746

Live tracking on map

Real-time ground track for satellite COSMOS 1391.

In-orbit conjunctions

A list of the most updated potential collisions computed for object COSMOS 1391.

Target Orbit TCA Probability of collision Miss distance Type
SL-14 R/B LEO 2025-03-21 18:35:05 0.0002223172 95.0 (m) ROCKET BODY

Associated space launch

Military communications satellites

COSMOS 1391 was lifted into orbit during the mission ‘Kosmos-3M | Strela-1M 241-248’, on board a Kosmos-3M space rocket.

The launch took place on July 21, 1982, 6:31 a.m. from 132/2.

For more information about the launch, click the button.

Launch to space Kosmos-3M | Strela-1M 241-248
Kosmos-3M | Strela-1M 241-248

Agency: N/A

Status: Launch Successful

Launch date: July 21, 1982, 6:31 a.m. UTC

Rocket: Kosmos-3M

Launch pad: 132/2

Location: Plesetsk Cosmodrome, Russian Federation

...

Latest news about this satellite

There are no fresh news available about this satellite. Check back as we update our databases every day.


Newsletter sign-up

Weekly statistics, charts and insights to help you stay on top of the space industry.